Regional Weather Roundup
Issued by NWS Northern Indiana

Home | Current Version | Previous Version | Text Only | Print | Product List | Glossary On
Versions: 1 2 3 4 5 6 7 8 9 10 11 12 13 14 15 16 17 18 19 20 21 22 23 24 25 26 27 28 29 30 31 32 33 34 35 36 37 38 39 40 41 42 43 44 45 46 47 48 49 50
000
ASUS43 KIWX 290500
RWRIWX

KIWX WEATHER ROUNDUP
NATIONAL WEATHER SERVICE NORTHERN INDIANA
1200 AM EST THU JAN 29 2015

NOTE: "FAIR" INDICATES FEW OR NO CLOUDS BELOW 12,000 FEET WITH NO
SIGNIFICANT WEATHER AND/OR OBSTRUCTIONS TO VISIBILITY.

* THESE STATIONS ARE NOT UNDER NWS QUALITY CONTROL. THEY ALSO MAY NOT
  REPORT WEATHER SUCH AS PRECIPITATION OR FOG.

INZ001>027-290600-
NORTHERN INDIANA

CITY           SKY/WX    TMP DP  RH WIND       PRES   REMARKS
SOUTH BEND     MOCLDY    31  20  63 S15G25    29.97S WCI  20
GOSHEN         MOCLDY    28  19  69 S14       29.98F WCI  17
ANGOLA*        CLEAR     25  18  74 S12       30.02F WCI  14
FORT WAYNE     CLOUDY    29  20  69 SE14      30.03F WCI  18
PERU/GRISSOM   CLOUDY    32  22  66 S18G25    29.96F WCI  21

$$
INZ028>050-290600-
CENTRAL INDIANA

CITY           SKY/WX    TMP DP  RH WIND       PRES   REMARKS
LAFAYETTE      CLOUDY    34  19  54 S10G18    29.96S WCI  26
KOKOMO*        CLOUDY    32  21  64 S24       29.97F WCI  19
MUNCIE*        CLOUDY    32  20  61 S16G25    30.02F WCI  21
INDIANAPOLIS   CLOUDY    31  18  58 SE14      30.01F WCI  21

$$
MIZ043>046-050>051-056>058-064>065-071>073-077>080-290600-
SOUTHWEST LOWER MICHIGAN

CITY           SKY/WX    TMP DP  RH WIND       PRES   REMARKS
BATTLE CREEK   CLOUDY    28  16  60 S12G22    29.99F WCI  18
BENTON HARBOR  MOCLDY    29  19  66 SE9G21    29.93F WCI  20
COLDWATER*     CLOUDY    27  18  69 SE12G17   30.00F WCI  16
HILLSDALE*     CLOUDY    25  16  68 SE7G21    30.03F WCI  17
HOLLAND        CLOUDY    29  17  61 SE13      29.96F WCI  19
GRAND RAPIDS   CLOUDY    27  15  61 SE13      29.98F WCI  16
KALAMAZOO      CLOUDY    28  16  60 S12       29.99F WCI  18
STURGIS*       CLOUDY    27  18  69 SE15      29.98F WCI  15
THREE RIVERS*  FAIR      28  18  67 SE10G16   29.99F WCI  18

$$
OHZ001>008-015>018-024>025-290600-
NORTHWEST OHIO

CITY           SKY/WX    TMP DP  RH WIND       PRES   REMARKS
DEFIANCE       CLOUDY    27  17  66 SE7       30.08F WCI  19
FINDLAY        CLOUDY    27  16  63 SE20G28   30.09F WCI  13
TOLEDO EXPRESS CLOUDY    24  14  65 SE6       30.10F WCI  17
TOLEDO METCALF CLOUDY    26  14  60 S10       30.13F WCI  16
LIMA           CLOUDY    28  18  66 SE21      30.08F WCI  15

$$
AND FOR LAKE MICHIGAN COASTAL AND OPEN LAKE BUOY OBSERVATIONS

STATION/POSITION TEMP    WIND        PRES    VSBY  WAVE
                 AIR SEA DIR/SP/G                  HT/PER
                 (F)     (DEG/KT/KT) (MB)    (MI)  (FT/S)
CALUMET HARBOR    35     160/ 13/ 19   N/A
MICHIGAN CITY     33     150/ 12/ 15   N/A
SAINT JOSEPH      30     160/  4/ 15 1014.9R

$$
&&


USA.gov is the U.S. government's official web portal to all federal, state and local government web resources and services.